Location: Paddlesworth
(51.1000°N, 1.1333°E)
Time: 20:37:27
(UTC+00:00)

Gbstr 26 Del rocket - Pass Details

Date: 11 May 2021
Orbit: 493 x 1263 km, 51.8° (Epoch: 20 June)

Event Time Altitude Azimuth Distance (km) Brightness Sun altitude
Rises 22:08:22 0° 284° (WNW) 4,138 7.9 -17.2°
Reaches altitude 10° 22:11:21 10° 284° (WNW) 3,105 7.1 -17.4°
Maximum altitude 22:18:57 81° 198° (SSW) 1,064 4.1 -17.8°
Enters shadow 22:23:51 18° 114° (ESE) 2,120 5.4 -18.1°
